DW0332 Weather Reports


Display with metric or nautical units.
time (UTC)temp
F
wind
direction
speed
MPH
gust
MPH
rain 1hr
in
rain 24hr
in
rain mn
in
humidity
%
barometer
mb
20260505021554 52 257 8.0 15.0 0.00 0.00 0.00 75 1010.1
20260505020053 52 252 7.0 16.0 0.00 0.00 0.00 75 1010.0
20260505014550 52 255 10.0 18.0 0.00 0.00 0.00 75 1010.0
20260505013051 52 228 7.0 17.0 0.00 0.00 0.00 76 1009.8
20260505011607 52 248 7.0 16.0 0.00 0.00 0.00 76 1009.7
20260505010050 51 222 6.0 14.0 0.00 0.00 0.00 77 1009.5
20260505004547 50 223 8.0 13.0 0.00 0.00 0.00 79 1009.2
20260505003053 50 252 5.0 9.0 0.00 0.00 0.00 79 1009.0
20260505001602 50 204 4.0 10.0 0.00 0.00 0.00 78 1008.7
20260504234545 51 204 2.0 6.0 0.00 0.00 0.00 77 1008.4
20260504233102 51 224 4.0 9.0 0.00 0.00 0.00 75 1008.1
20260504231545 53 209 4.0 9.0 0.00 0.00 0.00 71 1007.8
20260504230042 55 195 1.0 4.0 0.00 0.00 0.00 66 1007.6
20260504224543 56 196 2.0 5.0 0.00 0.00 0.00 63 1007.6
20260504223042 58 178 1.0 5.0 0.00 0.00 0.00 59 1007.3
20260504221543 61 196 1.0 9.0 0.00 0.00 0.00 52 1007.2
20260504220040 67 173 5.0 10.0 0.00 0.00 0.00 43 1007.2
20260504214540 70 232 4.0 9.0 0.00 0.00 0.00 34 1007.2
20260504213039 70 244 6.0 12.0 0.00 0.00 0.00 33 1007.1
20260504211539 70 225 5.0 14.0 0.00 0.00 0.00 33 1007.1
20260504210038 70 257 6.0 15.0 0.00 0.00 0.00 33 1007.0
20260504204537 72 213 7.0 15.0 0.00 0.00 0.00 32 1007.1
20260504203037 72 246 8.0 20.0 0.00 0.00 0.00 31 1007.1
20260504201534 72 293 3.0 17.0 0.00 0.00 0.00 33 1007.0
20260504200034 71 211 3.0 14.0 0.00 0.00 0.00 35 1007.1
20260504194535 72 215 6.0 9.0 0.00 0.00 0.00 33 1007.1
20260504193028 69 298 5.0 10.0 0.00 0.00 0.00 35 1007.1
20260504191526 67 260 3.0 12.0 0.00 0.00 0.00 37 1007.4
20260504190027 66 264 2.0 20.0 0.00 0.00 0.00 38 1007.5
20260504184525 66 269 6.0 14.0 0.00 0.00 0.00 36 1007.6
20260504183024 67 301 9.0 16.0 0.00 0.00 0.00 34 1007.5
20260504181522 67 245 6.0 15.0 0.00 0.00 0.00 36 1007.2
20260504180018 65 274 7.0 17.0 0.00 0.00 0.00 40 1007.4
20260504174514 62 235 7.0 17.0 0.00 0.00 0.00 48 1007.3
20260504173012 61 209 8.0 17.0 0.00 0.00 0.00 53 1007.4
20260504171512 59 233 10.0 16.0 0.00 0.00 0.00 58 1007.5
20260504160108 57 261 6.0 16.0 0.00 0.00 0.00 62 1008.2
20260504100104 44 251 3.0 9.0 0.00 0.00 0.00 64 1011.1
20260504090108 44 270 5.0 12.0 0.00 0.00 0.00 59 1010.7
20260504081552 43 228 4.0 11.0 0.00 0.00 0.00 60 1011.0
20260504050023 41 244 2.0 7.0 0.00 0.00 0.00 70 1010.8
20260504044521 40 233 3.0 11.0 0.00 0.00 0.00 70 1010.6
20260504043020 40 255 3.0 7.0 0.00 0.00 0.00 69 1010.6
20260504041520 40 246 2.0 5.0 0.00 0.00 0.00 69 1010.6
20260504040014 39 257 1.0 6.0 0.00 0.00 0.00 68 1010.4
20260504034510 38 260 1.0 5.0 0.00 0.00 0.00 70 1010.4
20260504033013 38 250 0.0 3.0 0.00 0.00 0.00 71 1010.3
20260504031506 37 250 0.0 3.0 0.00 0.00 0.00 71 1010.3
20260504030008 38 250 0.0 3.0 0.00 0.00 0.00 70 1010.3
20260504024502 38 249 0.0 2.0 0.00 0.00 0.00 68 1010.2
20260504023059 39 249 1.0 3.0 0.00 0.00 0.00 67 1010.1